Starlink 35129

operational
NORAD ID: 66076 Int'l Des: 2025-235 Owner: SPXS Country: US Constellation: starlink
NOTLE

关于 Starlink 35129

正在加载描述...

实时位置

正在加载3D地球...

即将过境

高度历史

Altitude vs Time

uPlot chart will show altitude changes over time

两行轨道根数

1 66076C 25235V 25293.06854167 .00531190 00000+0 78508-3 0 2936
2 66076 53.1589 188.8503 0005590 294.8047 204.3765 16.03663289 16
Epoch: Oct 20, 2025 • Age: 19 hours

当前状态

高度 261.9 km
速度 7.75 km/s
星下点 15.54°N, 118.83°W
发射日期 Oct 19, 2025
运行时间 1 days
类型 internet

技术详情

分类 Payload
质量 575.00 kg
干质量 530.00 kg
总质量 575.00 kg
长度 0.30 m
直径 4.10 m
跨度 29.00 m
形状 Box + pan
制造商 SPXS
平台类型 Starlink V2MO
阶段状态 In Orbit
所有者/国家 SPXS/US

大型星座

Loading constellations...